Regional Weather Roundup
Issued by NWS Charleston, SC

Current Version | Previous Version | Graphics & Text | Print | Product List | Glossary On
Versions: 1 2 3 4 5 6 7 8 9 10 11 12 13 14 15 16 17 18 19 20 21 22 23 24 25 26 27 28 29 30 31 32 33 34 35 36 37 38 39 40 41 42 43 44 45 46 47 48 49 50
000 ASUS42 KCHS 291628 RWRCHS REGIONAL WEATHER ROUNDUP NATIONAL WEATHER SERVICE CHARLESTON SC 1200 PM EDT FRI APR 29 2016 NOTE: "FAIR" INDICATES FEW OR NO CLOUDS BELOW 12,000 FEET WITH NO SIGNIFICANT WEATHER AND/OR OBSTRUCTIONS TO VISIBILITY. NOT ALL STATIONS ARE QUALITY CONTROLLED. USE DATA WITH CAUTION... ESPECIALLY DEWPOINT OBSERVATIONS. SCZ027-030-031-034>040-042>050-291700- ...SOUTHEAST SOUTH CAROLINA... CITY SKY/WX TMP DP RH WIND PRES REMARKS N CHARLESTON MOSUNNY 87 62 43 N8 29.95F WATERFRONT PRK N/A 81 65 58 N7 29.94F MOUNT PLEASANT FAIR 86 64 48 NE6 29.95F JOHNS ISLAND FAIR 86 61 42 N9 29.95F PINOPOLIS N/A 82 68 61 MISG 29.90F MONCKS CORNER FAIR 81 61 50 N5 29.95F SUMMERVILLE FAIR 86 63 45 CALM 29.97S BEAUFORT MCAS SUNNY 86 61 42 VRB3 29.96F BEAUFORT ARPT FAIR 84 59 42 NE7 29.95F HILTON HEAD IS SUNNY 91 66 43 N7 29.98F HX 94 WALTERBORO SUNNY 86 57 37 SE3 29.96F ALLENDALE FAIR 86 59 39 N5 29.96S ...SOUTHERN MIDLANDS AND PEE DEE... CITY SKY/WX TMP DP RH WIND PRES REMARKS GEORGETOWN FAIR 82 64 54 E9 29.96F KINGSTREE FAIR 81 59 47 N6 29.96F ORANGEBURG SUNNY 84 58 40 E7 29.97F BARNWELL FAIR 88 61 40 CALM 29.97F AIKEN FAIR 82 54 36 CALM 30.01S MANNING NOT AVBL COLUMBIA MOSUNNY 85 57 38 VRB5 29.96F SUMTER SUNNY 82 61 48 N8 29.95F FLORENCE SUNNY 80 63 55 NE9 29.97F MYRTLE BEACH MOSUNNY 82 61 47 N14 29.98S N MYRTLE BEACH SUNNY 82 62 50 NE15G21 29.96S $$ GAZ063-065-086>088-099>101-113>116-118-119-134>141-150-291700- ...SOUTHEAST GEORGIA... CITY SKY/WX TMP DP RH WIND PRES REMARKS SAVANNAH ARPT MOSUNNY 86 62 44 CALM 29.97F HUNTER AAF SUNNY 86 65 48 CALM 29.94F FORT STEWART SUNNY 86 61 43 VRB1 29.95F STATESBORO SUNNY 89 65 44 SE3 29.97F HX 91 SYLVANIA SUNNY 87 64 46 CALM 29.98F CLAXTON FAIR 86 64 47 CALM 29.97F ...CSRA...CENTRAL AND FAR SOUTHEAST GEORGIA... CITY SKY/WX TMP DP RH WIND PRES REMARKS THOMSON SUNNY 83 62 48 W3 30.04S AUGUSTA-BUSH SUNNY 84 58 40 CALM 29.97S AUGUSTA-DANIEL SUNNY 83 55 38 CALM 29.99F SWAINSBORO FAIR 84 59 42 N3 29.99S VIDALIA SUNNY 84 63 48 CALM 29.98F EASTMAN FAIR 86 61 43 CALM 30.02S HAZLEHURST FAIR 85 62 44 CALM 29.97F ALMA SUNNY 84 66 54 CALM 29.98F WAYCROSS MOSUNNY 84 70 62 E6 29.98F JESUP FAIR 88 68 51 E6 29.97F HX 91 BAXLEY FAIR 88 61 40 N3 29.98S BRUNSWICK SUNNY 90 68 48 CALM 29.98F HX 93 SAINT SIMONS SUNNY 81 72 74 SW10 29.98F $$ SCZ027-028-034-036>038-045-046-048>050-GAZ119-141-291700- ...LAKE AND SUPPLEMENTAL COASTAL OBSERVATIONS... STATION/POSITION TIME TEMP WIND PRES WAVE SWELL AIR SEA DIR/SP/G HT/PER HT/PER/DIR (UTC) (F) (DEG/KT/KT) (MB) (FT/S) (FT/S/D) WINYAH BAY 1545 80 30/ 6 1014.0S LAKE MURRAY 1500 79 10/ 2/ 5 1014.6F ACE BASIN NERRS 1500 84 330/ 2 1015.0S FORT PULASKI 1600 82 71 90/ 3/ 4 1014.9F SAPELO ISLAND 1600 82 240/ 4 1015.0F $$ ANZ835-935-AMZ111-154-330-350-352-354-370-450-454-472-291700- ...C-MAN AND BUOY OBSERVATIONS... STATION/POSITION TIME TEMP WIND PRES WAVE SWELL AIR SEA DIR/SP/G HT/PER HT/PER/DIR (UTC) (F) (DEG/KT/KT) (MB) (FT/S) (FT/S/D) BUOY 41004 1550 72 72 310/ 6/ 6 1014.3S 2/ 4 2/ 9 BUOY 41008 NOT AVBL FOLLY BEACH CMAN 1600 82 20/ 5/ 6 1014.5F CAPERS NEARSHORE 1608 75 69 120/ 4/ 6 1014.2F FRIPP NEARSHORE 1508 76 70 20/ 2/ 4 1014.4R STATION/POSITION TIME TEMP WIND PRES WAVE SWELL AIR SEA DIR/SP/G HT/PER HT/PER/DIR (UTC) (F) (DEG/KT/KT) (MB) (FT/S) (FT/S/D) 5E ST. MARYS GA 1521 72 N/A 1/11 FRYING PAN BUOY 1600 69 70 30/ 16/ 19 1014.8R BUOY 41025 1550 63 70 360/ 16/ 21 1014.7F 3/ 5 2/100/10 CAPE LOOKOUT NC 1600 63 30/ 13/ 15 1015.5F BUOY 41002 1550 72 71 200/ 14/ 16 1015.7R 3/10 2/ 80/10 BUOY 41010 1520 76 76 210/ 10/ 10 1016.5F ST AUGUSTINE FL 1600 71 70 50/ 5/ 6 1017.0F $$

USA.gov is the U.S. government's official web portal to all federal, state and local government web resources and services.